Temp
19 20 20 21 20 22 24 23 23 20 19 20 19 17 17 16 15 14 14 14 14 13 11 11 10 10 10 10 10 10 11 11 11 10 10 9 9 8 10 9 10 11 11 11
18 18 19 20 20 22 23 24 24 19 18 19 18 16 16 16 16 15 15 14 13 12 12 11 10 10 9 9 9 10 11 11 11 10 9 8 8 7 7 7 7 9 9 9
18 19 18 20 21 22 23 24 21 22 17 17 18 16 16 16 16 15 14 14 13 13 12 11 10 9 9 9 9 9 10 10 10 9 9 8 7 7 7 7 6 6 7 8
17 18 18 18 20 22 22 23 22 19 21 21 20 22 16 17 16 15 14 14 13 13 12 11 10 9 9 8 8 8 9 10 10 10 8 7 8 7 6 6 6 5 6 6
18 17 18 19 20 21 23 23 22 20 21 20 18 20 20 17 16 16 15 14 13 13 13 12 10 9 9 8 8 8 8 8 8 9 7 7 6 6 6 6 5 5 5 4
18 17 18 20 19 21 21 21 21 20 18 17 20 20 23 18 18 17 16 14 14 13 12 11 10 9 9 8 8 7 7 7 8 8 7 6 6 6 6 5 6 5 5 4
17 18 19 19 20 20 22 21 17 18 17 21 22 18 22 20 20 19 17 15 14 13 12 11 10 10 9 8 8 7 7 6 6 7 6 6 5 5 5 5 5 5 5 4
17 17 19 19 20 21 21 22 19 20 20 21 19 19 22 23 21 20 18 16 14 13 12 11 11 10 9 8 8 8 7 7 6 6 5 5 5 5 5 4 4 4 4 3
16 17 18 18 21 22 21 19 23 21 19 20 21 21 19 19 19 18 17 15 14 13 12 12 11 10 9 9 8 8 7 7 6 6 5 5 5 5 4 4 3 3 3 3
18 17 18 19 20 20 21 22 19 19 19 20 21 22 22 19 18 18 16 15 14 13 13 13 11 10 10 9 8 8 7 7 6 6 5 5 4 4 4 3 3 2 2 2
18 17 18 18 19 21 20 20 20 21 20 21 21 22 24 20 18 17 16 15 14 14 14 13 12 10 10 9 8 7 7 6 6 6 5 4 4 4 4 3 2 2 2 1
17 17 17 18 18 18 20 20 21 19 20 20 21 23 18 21 18 17 17 16 15 15 14 13 12 10 9 9 8 7 7 6 6 5 4 4 4 4 3 2 2 2 1 1
14 16 16 17 17 18 18 19 20 21 19 20 20 22 17 19 18 17 17 16 15 14 14 13 11 10 10 9 8 8 7 6 5 5 4 4 4 3 2 2 2 1 1 1
12 15 17 17 18 17 17 17 18 19 18 20 20 21 16 17 17 16 16 15 14 14 13 12 12 11 10 9 8 7 7 6 5 5 4 3 3 2 2 2 1 1 1 1
9 10 14 17 19 17 17 18 18 18 20 19 21 20 19 16 17 16 16 14 14 14 13 12 12 11 10 9 8 7 6 5 5 5 4 3 2 2 2 2 1 1 0 0
8 9 11 14 16 17 17 17 18 19 20 20 20 20 19 18 17 16 15 14 14 13 13 12 12 10 9 8 8 7 6 5 5 4 3 2 2 2 1 1 1 0 0 -0
6 9 10 13 15 15 14 16 18 18 20 19 18 20 17 17 16 15 14 14 14 14 13 12 12 10 10 9 7 7 6 5 4 4 3 2 2 2 1 1 1 0 0 -0
7 8 9 10 13 13 18 19 19 18 19 18 19 20 19 19 18 17 16 15 15 14 13 13 12 11 10 8 7 6 5 5 4 4 3 2 2 1 1 1 1 0 -0 -0
6 8 8 9 13 16 17 17 17 17 19 18 18 19 18 19 18 17 16 16 15 15 13 13 12 10 9 7 7 6 5 5 4 3 3 2 2 1 1 1 0 -0 -0 -0
7 8 8 9 10 13 17 17 16 17 17 20 18 18 18 16 16 17 15 15 15 14 13 12 11 9 7 7 6 5 5 4 4 3 2 2 2 1 1 0 -0 -0 -1 -1
7 6 8 9 9 12 15 17 17 17 18 18 17 18 17 16 19 18 14 14 14 13 12 11 9 8 8 6 6 5 5 4 4 3 2 1 1 1 1 0 -0 -1 -1 -1
7 8 8 10 9 10 15 14 17 18 16 17 15 16 16 16 17 16 14 14 13 12 11 9 9 8 7 6 6 5 5 4 3 2 2 1 1 0 0 -0 -1 -1 -1 -1
6 7 7 11 13 14 13 15 16 15 17 17 15 15 16 15 15 14 14 14 13 12 10 10 9 7 6 6 6 5 5 3 2 2 1 1 0 -0 -1 -0 -1 -1 -1 -1
5 5 3 5 12 10 8 9 11 10 12 15 14 15 14 14 13 13 14 13 12 11 10 10 8 7 6 6 6 6 3 3 2 2 1 0 -0 -1 -1 -1 -1 -1 -1 -2
2 3 4 4 6 9 12 9 9 9 9 11 13 14 14 14 12 13 13 12 12 10 10 9 8 7 6 6 6 4 4 2 2 1 1 0 -0 -0 -1 -1 -2 -2 -3 -3
2 2 2 3 6 6 6 7 8 8 8 9 12 13 13 13 13 13 12 12 10 10 9 8 8 8 6 5 4 4 3 3 2 1 1 0 -0 -1 -1 -2 -3 -4 -4 -4
Height
775 776 774 771 773 770 763 772 781 796 796 798 805 816 821 827 833 837 840 841 842 843 846 845 843 842 841 841 841 841 843 844 844 846 847 849 852 852 851 853 853 852 851 850
780 776 773 771 771 768 766 767 772 796 798 801 812 822 826 828 831 833 835 840 842 844 846 847 845 844 844 843 843 843 845 846 845 848 849 852 852 855 855 857 856 854 854 853
775 771 770 770 770 769 765 763 775 777 802 809 811 829 828 828 830 833 837 840 843 843 846 847 848 848 847 847 846 846 847 847 847 850 851 852 853 858 858 858 859 859 858 855
775 768 771 772 766 762 768 762 770 784 787 796 800 800 821 819 824 829 832 836 839 843 846 848 849 849 850 850 850 849 850 850 851 852 852 855 857 859 860 861 862 862 859 857
768 769 769 769 760 759 759 758 769 780 785 796 811 802 794 812 819 822 823 830 835 839 842 845 848 850 851 853 852 853 852 854 855 855 856 858 859 861 863 864 864 863 861 859
765 762 763 759 758 757 757 764 774 783 796 813 787 794 771 796 798 805 814 823 828 836 841 845 847 848 851 854 854 856 855 858 859 859 859 859 860 863 864 863 862 862 862 861
765 757 755 755 757 756 753 762 798 802 806 773 767 797 763 774 777 784 797 810 821 830 837 841 845 846 850 852 855 857 859 861 862 861 860 860 861 862 862 862 863 864 863 862
763 762 750 746 748 749 747 747 766 775 775 767 783 784 761 756 767 775 790 803 816 826 832 839 842 844 848 851 854 856 859 860 862 861 862 864 863 863 863 863 863 864 862 861
762 758 741 740 736 739 748 757 735 755 766 772 769 761 765 764 769 776 786 797 808 818 826 833 838 842 846 850 853 855 858 861 863 863 864 864 863 863 864 864 864 863 862 862
747 756 741 736 736 736 734 728 757 758 770 769 752 750 746 760 768 775 786 792 800 811 820 828 833 838 843 848 851 854 857 861 863 864 864 864 865 866 865 864 864 863 863 862
740 749 745 739 736 731 738 742 741 739 748 749 747 734 721 743 751 759 764 774 786 797 809 819 826 834 840 845 849 853 857 859 862 863 865 865 866 865 864 863 863 863 864 864
739 743 746 739 733 731 729 728 727 742 747 740 738 725 732 720 729 739 749 760 776 787 799 811 820 829 837 842 847 852 855 857 860 862 863 864 865 863 862 862 863 863 864 865
751 741 744 740 739 732 731 728 724 722 735 734 743 720 731 727 736 744 751 763 774 786 796 807 818 826 832 838 843 849 853 856 858 861 861 863 864 863 863 864 863 865 865 864
752 740 729 727 720 729 733 730 725 725 737 724 724 722 739 735 737 742 750 761 773 782 791 802 813 821 828 834 839 845 851 854 857 859 860 862 863 864 864 864 865 865 865 864
770 759 737 722 713 722 723 719 724 725 714 728 713 723 724 730 731 733 744 758 769 778 788 796 805 814 823 830 836 842 847 851 854 856 858 861 863 864 864 865 865 865 864 863
782 767 748 729 719 717 718 716 713 707 706 710 713 714 713 716 728 738 745 752 760 768 776 788 799 808 816 823 830 837 842 847 851 853 857 860 862 864 865 864 865 864 863 864
793 772 763 732 722 723 730 709 705 705 700 703 718 706 717 722 727 732 740 744 747 756 767 777 787 798 807 815 822 831 838 844 848 852 856 859 861 862 862 864 863 862 864 866
781 775 772 752 731 729 688 688 692 696 691 699 701 701 706 705 710 717 724 730 737 747 759 770 779 791 801 810 819 828 835 841 846 851 854 857 858 859 861 861 861 862 864 865
772 773 771 756 726 703 693 690 691 695 684 692 697 698 699 700 708 715 718 723 726 731 742 755 769 781 794 803 813 824 832 838 844 848 851 854 855 858 859 859 861 862 864 865
749 755 759 754 743 712 675 683 685 688 689 676 686 691 694 703 712 702 711 718 725 734 743 753 766 779 789 799 808 818 827 834 840 843 847 850 853 855 857 858 860 861 863 863
746 755 745 738 741 708 686 676 680 697 672 666 672 678 683 688 677 685 694 707 717 725 736 749 760 769 779 791 803 814 821 829 834 839 844 848 852 853 855 857 859 862 861 861
740 726 727 724 730 715 681 688 678 662 664 666 674 675 679 678 678 682 688 696 708 719 733 745 753 766 777 788 798 808 817 824 830 835 841 846 849 851 854 857 860 859 859 859
744 736 730 701 685 681 685 678 669 668 664 665 670 671 672 677 680 681 685 693 700 711 723 735 745 759 773 783 792 801 811 818 825 832 839 843 846 850 854 857 857 857 858 858
752 747 748 733 681 695 700 691 691 692 688 678 669 667 669 672 675 680 683 691 699 709 720 731 743 754 766 778 788 796 804 813 821 829 836 841 845 850 853 855 855 856 857 857
769 763 747 732 710 696 682 693 696 695 695 686 678 674 664 669 674 676 681 688 696 704 715 725 735 745 758 772 782 791 799 809 817 826 834 839 844 848 851 852 854 855 855 856
758 749 754 722 714 718 705 701 702 700 693 689 681 673 670 666 667 671 678 684 692 702 712 722 731 741 753 765 776 787 796 804 812 823 831 836 841 845 847 850 853 854 855 855
Wind_Speed
1 6 12 12 6 4 9 9 13 3 4 4 5 16 17 14 12 12 11 11 11 11 10 11 13 15 17 17 17 18 21 21 21 18 20 15 16 18 22 19 19 20 19 18
2 12 9 6 8 8 6 13 18 6 3 4 12 15 13 13 13 14 14 12 12 11 10 11 13 15 17 18 19 19 18 16 18 16 16 14 16 17 17 16 19 20 19 19
10 3 5 11 8 13 12 19 15 13 9 8 17 7 12 12 12 11 11 10 11 13 13 11 13 14 16 18 19 21 20 21 21 20 20 20 18 14 15 16 16 17 18 19
7 7 4 10 17 13 18 8 12 19 15 9 10 8 15 17 17 16 15 14 14 13 12 12 15 15 16 17 19 21 22 23 22 20 19 17 16 16 14 14 13 14 17 18
6 4 13 14 12 15 11 10 16 13 8 5 9 6 4 19 17 17 20 17 16 14 14 14 17 18 18 17 19 21 24 23 22 21 20 18 19 16 13 12 12 13 15 17
7 2 5 12 5 12 15 15 14 7 4 5 15 12 13 15 25 25 20 20 19 17 15 17 17 18 18 17 19 19 21 21 21 21 21 20 18 15 14 14 13 13 12 14
5 15 6 4 10 11 14 17 5 6 6 15 16 10 16 17 24 26 26 24 22 18 17 16 19 19 19 18 18 18 19 18 18 20 20 18 17 16 15 13 13 11 12 13
7 6 12 10 13 12 24 20 7 14 14 15 6 11 9 17 20 21 20 23 22 20 17 17 22 21 21 20 18 18 17 17 16 17 17 15 14 14 14 14 12 11 12 13
6 6 3 6 9 12 15 12 16 6 1 7 10 15 6 4 14 18 22 25 25 23 21 20 23 22 22 20 20 19 18 16 15 15 15 15 15 14 13 12 12 13 13 12
6 7 5 5 5 5 17 19 10 3 10 16 14 21 12 15 19 22 22 25 24 22 22 20 24 24 22 20 20 21 19 18 17 15 14 14 13 13 12 13 14 14 13 13
11 6 2 4 10 15 6 13 8 7 5 13 16 14 10 17 22 27 28 27 27 26 24 22 26 25 24 21 20 20 19 20 17 15 15 14 13 13 14 15 14 13 13 12
11 6 10 10 2 3 7 13 21 10 19 12 10 14 2 17 24 26 28 27 26 26 24 23 28 27 26 24 22 22 20 20 18 16 15 14 13 13 15 14 13 13 12 10
6 6 8 6 4 3 7 7 17 16 2 17 13 12 6 9 14 17 20 21 22 23 24 21 26 27 28 26 24 23 21 20 18 16 15 14 13 13 13 13 12 12 12 12
3 5 10 15 9 4 7 6 11 16 9 14 17 9 3 11 15 17 19 20 21 22 22 21 21 28 28 27 26 24 22 21 19 16 15 14 13 13 12 13 12 13 11 12
7 5 5 13 17 8 6 16 14 13 21 12 15 10 11 13 17 21 18 19 23 23 22 22 21 25 28 27 25 23 23 21 19 17 15 14 13 13 13 12 12 12 12 12
10 5 8 9 12 13 12 14 17 21 21 19 12 14 3 11 8 15 20 23 25 25 25 23 21 30 30 30 28 25 24 22 20 17 16 15 14 13 12 12 11 11 11 11
7 3 8 5 6 7 8 19 19 17 16 16 16 10 7 10 16 18 20 24 27 27 26 26 25 30 32 31 31 28 27 24 20 18 17 15 14 13 12 11 11 12 10 8
11 8 3 6 5 9 15 12 19 20 15 18 8 12 16 14 21 22 24 27 27 26 26 25 30 32 32 31 29 27 26 24 21 19 17 16 14 13 12 11 11 10 9 8
22 13 4 4 7 10 6 6 10 13 22 9 16 12 15 14 12 14 19 23 27 29 26 33 37 36 33 34 34 31 27 25 22 20 18 16 15 14 12 11 10 8 7 7
20 21 10 5 4 8 18 8 3 4 15 12 15 16 16 14 11 9 18 20 22 28 35 36 35 36 35 35 38 34 29 26 23 21 19 17 15 13 12 11 10 9 7 6
10 12 18 15 9 11 6 6 10 9 9 7 16 16 18 16 17 16 22 21 24 30 35 37 38 40 40 40 39 33 30 27 24 22 21 17 15 13 12 11 9 7 7 7
5 6 9 14 13 17 5 1 16 14 3 4 5 12 15 19 11 12 20 23 24 25 34 37 37 34 36 41 39 33 31 26 26 24 21 18 16 13 11 10 8 7 7 7
6 2 6 5 14 3 4 5 11 4 3 3 5 6 12 11 12 11 18 22 24 29 35 39 39 37 38 40 38 34 30 30 27 24 21 18 16 14 11 9 8 7 6 6
8 14 5 11 14 9 18 16 13 18 17 13 3 3 8 10 11 13 17 19 20 28 32 37 37 36 36 37 35 33 33 31 29 25 21 19 16 14 11 9 7 7 6 5
13 17 13 20 26 18 14 10 22 25 21 23 20 9 10 12 13 15 17 19 19 28 35 38 38 38 39 37 34 33 37 33 29 25 22 19 16 14 12 9 7 7 7 5
16 25 14 16 15 16 28 28 28 24 24 24 21 18 10 14 15 18 17 18 25 27 33 34 37 39 39 37 34 34 35 35 31 27 23 21 18 15 13 12 11 9 8 7
Wind_Direction
258 211 215 208 204 287 217 157 164 108 131 112 157 147 162 160 154 151 149 144 130 111 103 93 88 90 93 92 108 112 119 118 119 109 104 91 88 78 79 69 69 65 61 58
222 236 219 225 209 236 275 183 178 116 62 97 149 147 160 169 172 171 164 158 145 134 120 104 92 89 88 92 95 104 111 120 115 108 107 101 95 83 82 73 66 63 59 57
212 215 208 206 207 207 226 210 176 172 113 83 131 146 177 189 181 177 177 167 161 153 143 131 117 108 103 96 95 99 106 109 108 112 108 103 94 90 79 68 64 59 57 56
237 234 233 216 223 200 221 221 179 148 169 188 218 207 206 191 193 191 183 184 175 167 153 143 132 119 114 111 109 104 102 104 111 113 107 103 99 92 84 78 71 62 56 53
221 209 210 218 220 198 228 160 169 166 163 166 221 239 137 187 203 196 196 186 181 177 166 156 147 136 127 121 113 108 105 104 104 105 105 102 99 94 92 87 81 67 56 49
238 229 195 232 215 193 131 112 113 115 126 197 203 228 198 193 200 205 190 186 182 176 171 160 149 139 134 131 123 118 110 108 107 105 103 100 100 101 93 79 69 60 52 45
236 248 237 183 205 175 182 151 142 171 195 224 180 199 235 200 200 197 185 183 179 176 171 165 160 154 149 144 137 129 124 119 114 106 100 97 96 93 84 80 71 65 56 47
214 244 203 188 213 196 189 186 180 205 207 214 115 232 243 215 214 199 180 173 172 177 174 175 170 162 157 154 150 141 134 126 119 109 104 101 98 90 84 75 71 68 67 58
201 249 225 206 186 194 188 208 198 210 293 208 207 233 248 181 190 176 171 170 179 177 177 178 172 167 162 160 159 151 142 135 129 119 111 98 88 87 84 76 77 72 69 62
211 262 224 202 176 228 191 197 183 184 195 217 214 228 228 169 178 175 174 181 177 176 178 178 174 170 166 161 159 156 152 148 140 128 115 107 101 95 86 83 79 73 70 65
206 218 245 167 209 198 169 195 214 227 206 222 235 242 189 193 181 184 189 181 176 175 178 177 173 171 167 162 160 159 156 151 144 134 127 118 111 96 90 83 77 74 72 68
211 209 237 231 207 269 227 210 196 195 207 227 243 234 339 213 188 184 188 182 177 175 172 174 170 169 169 167 164 164 160 155 150 142 131 118 107 96 89 85 82 76 74 74
336 217 225 230 248 222 215 200 205 216 231 220 215 230 352 176 178 195 183 179 176 172 171 168 168 173 173 170 166 166 163 159 152 144 131 122 109 102 97 91 86 84 84 76
290 241 226 223 235 151 209 206 196 205 212 224 228 236 190 172 178 177 180 177 176 173 168 169 173 176 175 172 168 167 165 161 154 146 136 127 120 113 107 97 93 88 82 74
29 285 256 246 233 206 205 199 189 205 225 213 223 216 197 192 187 188 174 165 170 174 173 176 174 175 175 172 168 167 164 161 157 147 139 132 126 119 111 103 98 89 80 73
352 300 329 268 246 222 227 220 207 215 221 226 216 218 221 197 162 170 175 174 178 181 178 175 174 175 175 173 170 167 163 163 160 150 144 141 136 128 119 107 101 90 80 73
292 301 348 275 249 202 253 221 214 224 225 221 214 208 160 173 179 180 181 185 185 184 178 176 176 175 175 173 167 169 167 164 160 153 151 149 143 133 121 113 98 85 79 74
242 251 289 284 274 214 245 212 214 219 222 209 190 186 188 195 194 187 190 187 187 184 179 178 175 176 174 168 166 165 165 165 162 158 157 154 147 133 127 113 98 90 79 67
212 213 241 255 230 272 268 212 195 211 248 213 202 200 197 204 196 212 197 193 192 188 180 176 173 171 166 163 165 165 165 166 165 164 161 158 149 140 130 116 103 94 85 66
194 202 191 210 226 228 242 219 147 130 257 236 203 206 198 160 197 206 186 192 189 181 175 171 168 165 162 163 166 163 167 168 171 167 162 157 152 143 132 121 110 96 90 72
185 197 208 217 240 268 259 215 149 212 260 232 190 202 197 193 211 195 186 186 185 175 169 165 162 166 167 164 165 165 167 174 169 162 159 156 153 144 136 127 118 112 96 79
265 208 198 218 214 252 231 201 184 219 119 147 172 202 194 212 206 191 182 176 171 168 166 166 163 163 162 165 165 165 171 170 162 159 156 156 151 146 141 138 137 115 92 76
262 328 313 242 214 223 306 285 274 350 216 233 163 196 213 211 215 184 179 175 171 168 167 167 164 158 162 166 168 165 169 162 159 157 156 154 152 150 150 148 135 111 91 75
299 323 297 338 261 300 305 306 2 353 340 315 278 240 197 204 197 183 173 172 170 167 166 165 160 159 160 167 170 166 162 163 160 157 157 157 153 153 153 142 128 117 99 80
269 304 286 292 289 299 252 316 333 326 327 331 320 279 208 192 189 179 177 174 172 167 165 164 164 162 162 164 164 165 164 164 160 159 160 159 158 157 151 138 132 122 99 93
240 253 261 259 284 313 297 301 308 307 312 314 313 296 252 200 187 178 177 174 169 168 166 166 166 161 159 160 160 163 167 167 161 161 164 166 163 160 153 145 127 123 118 98